This is the latest recevied weather packets stored in our database for station/object KB4RFE. If no packets are shown the sender has not sent any weather packets the latest 10 day(s).
| Time | Temp. | Humidity | Pressure | Rain* | Wind** | Luminosity | Snow |
|---|---|---|---|---|---|---|---|
| 1777652677 | 19.44° C | 79% | 1016.5 hPa | 0 mm | - | 154 W/m² | - |
| 1777652375 | 19.44° C | 80% | 1016.5 hPa | 0 mm | - | 164 W/m² | - |
| 1777652072 | 19.44° C | 79% | 1016.4 hPa | 0 mm | - | 144 W/m² | - |
| 1777651768 | 19.44° C | 79% | 1016.5 hPa | 0 mm | - | 160 W/m² | - |
| 1777651465 | 19.44° C | 79% | 1016.2 hPa | 0 mm | - | 189 W/m² | - |
| 1777651163 | 20° C | 77% | 1016.2 hPa | 0 mm | - | 184 W/m² | - |
| 1777650859 | 20° C | 79% | 1016.1 hPa | 0 mm | - | 192 W/m² | - |
| 1777650556 | 20° C | 78% | 1016.4 hPa | 0 mm | - | 168 W/m² | - |
| 1777650254 | 20° C | 79% | 1016.5 hPa | 0 mm | - | 191 W/m² | - |
| 1777649950 | 20° C | 77% | 1016.4 hPa | 0 mm | - | 223 W/m² | - |
| 1777649648 | 20° C | 78% | 1016.4 hPa | 0 mm | - | 226 W/m² | - |
| 1777649343 | 20° C | 78% | 1016.6 hPa | 0 mm | - | 237 W/m² | - |
| 1777649041 | 20° C | 78% | 1016.5 hPa | 0 mm | - | 166 W/m² | - |
| 1777648738 | 20° C | 78% | 1016.4 hPa | 0 mm | - | 291 W/m² | - |
| 1777648434 | 20° C | 77% | 1016.3 hPa | 0 mm | - | 188 W/m² | - |
| 1777648131 | 20° C | 78% | 1016.3 hPa | 0 mm | - | 294 W/m² | - |
| 1777647827 | 20° C | 77% | 1016.5 hPa | 0 mm | - | 291 W/m² | - |
| 1777647523 | 20° C | 79% | 1016.4 hPa | 0 mm | - | 91 W/m² | - |
| 1777647220 | 20° C | 78% | 1016.3 hPa | 0 mm | - | 273 W/m² | - |
| 1777646918 | 20° C | 78% | 1016.1 hPa | 0 mm | - | 256 W/m² | - |
| 1777646613 | 20.56° C | 78% | 1016.2 hPa | 0 mm | - | 295 W/m² | - |
| 1777646310 | 20° C | 79% | 1016 hPa | 0 mm | - | 381 W/m² | - |
| 1777646007 | 20° C | 80% | 1016 hPa | 0 mm | - | 348 W/m² | - |
| 1777645703 | 20° C | 80% | 1016.3 hPa | 0 mm | - | 260 W/m² | - |
| 1777645400 | 20° C | 80% | 1016.2 hPa | 0 mm | - | 262 W/m² | - |
* Rain latest hour (hover to see other rain measurements)
** Current wind speed in m/s (hover to see current wind gust speed)